Weather History for Raton, NM

Change the Weather History Date:

Sunday, June 23, 2013

  Actual Average (KTAD) Record (KTAD)
Temperature  
Mean Temperature 70 °F 71 °F  
Max Temperature 91 °F 86 °F 101 °F (2012)
Min Temperature 48 °F 55 °F 42 °F (1964)
Degree Days  
Heating Degree Days 0 0  
Month to date heating degree days 38  
Since 1 June heating degree days 38  
Since 1 July heating degree days 5533  
Cooling Degree Days 4 6  
Month to date cooling degree days 92  
Year to date cooling degree days 120  
Since 1 June cooling degree days 92  
Growing Degree Days 20 (Base 50)    
Moisture  
Dew Point 16 °F    
Average Humidity 14    
Maximum Humidity 32    
Minimum Humidity 5    
Precipitation  
Precipitation 0.00 in 0.04 in 0.28 in (1986)
Month to date precipitation 1.08  
Year to date precipitation 5.60  
Sea Level Pressure  
Sea Level Pressure 29.71 in    
Wind  
Wind Speed 11 mph (SE)    
Max Wind Speed 28 mph    
Max Gust Speed 39 mph    
Visibility 10 miles    
Events      
T = Trace of Precipitation, MM = Missing Value Source: NWS Daily Summary

Daily Weather History Graph

Daily Weather History Graph

Search for Another Location

Airport:

Trip Planner

Search our weather history database for the weather conditions in past years. The results will help you decide how hot, cold, wet, or windy it might be!

Date:

Astronomy

Jun. 23, 2013 Rise Set
Actual Time 5:40 AM MDT 8:20 PM MDT
Civil Twilight 5:09 AM MDT 8:51 PM MDT
Nautical Twilight 4:31 AM MDT 9:29 PM MDT
Astronomical Twilight 3:48 AM MDT 10:12 PM MDT
Moon 8:37 PM MDT (6/23) 5:58 AM MDT (6/23)
Length of Visible Light 15h 42m
Length of Day
14h 40m
Full, 100% of the Moon is Illuminated
Jun 23
Full
Jun 29
Last Quarter
Jul 8
New
Jul 15
First Quarter
Jul 22
Full

Hourly Weather History & Observations

Time (MDT) Temp. Dew Point Humidity Pressure Visibility Wind Dir Wind Speed Gust Speed Precip Events Conditions
12:53 AM 64.9 °F 9.0 °F 11% 29.69 in 10.0 mi East 6.9 mph - N/A   Clear
1:53 AM 59.0 °F 12.0 °F 16% 29.72 in 10.0 mi ENE 8.1 mph - N/A   Clear
2:53 AM 53.1 °F 17.1 °F 24% 29.75 in 10.0 mi NNE 5.8 mph - N/A   Clear
3:53 AM 53.1 °F 18.0 °F 25% 29.74 in 10.0 mi NE 8.1 mph - N/A   Clear
4:53 AM 55.9 °F 17.1 °F 22% 29.75 in 10.0 mi NE 6.9 mph - N/A   Clear
5:53 AM 48.9 °F 19.9 °F 32% 29.79 in 10.0 mi NNE 9.2 mph - N/A   Clear
6:53 AM 55.9 °F 21.9 °F 27% 29.78 in 10.0 mi NE 10.4 mph - N/A   Clear
7:53 AM 69.1 °F 21.9 °F 17% 29.75 in 10.0 mi East 8.1 mph - N/A   Clear
8:53 AM 75.9 °F 24.1 °F 15% 29.76 in 10.0 mi West 4.6 mph - N/A   Clear
9:53 AM 78.1 °F 35.1 °F 21% 29.77 in 10.0 mi ENE 10.4 mph - N/A   Clear
10:53 AM 82.0 °F 32.0 °F 16% 29.76 in 10.0 mi East 3.5 mph - N/A   Clear
11:53 AM 84.0 °F 24.1 °F 11% 29.73 in 10.0 mi SSE 9.2 mph - N/A   Clear
12:53 PM 88.0 °F 15.1 °F 7% 29.71 in 10.0 mi SSE 19.6 mph 25.3 mph N/A   Clear
1:53 PM 91.0 °F 14.0 °F 6% 29.70 in 10.0 mi South 24.2 mph 32.2 mph N/A   Clear
2:53 PM 91.0 °F 12.0 °F 5% 29.69 in 10.0 mi South 23.0 mph 29.9 mph N/A   Clear
3:53 PM 90.0 °F 14.0 °F 6% 29.67 in 10.0 mi South 27.6 mph 39.1 mph N/A   Clear
4:53 PM 89.1 °F 12.0 °F 6% 29.65 in 10.0 mi South 21.9 mph 33.4 mph N/A   Clear
5:53 PM 88.0 °F 10.0 °F 5% 29.65 in 10.0 mi South 25.3 mph 36.8 mph N/A   Clear
6:53 PM 87.1 °F 10.0 °F 6% 29.63 in 10.0 mi South 24.2 mph 31.1 mph N/A   Clear
7:53 PM 82.0 °F 9.0 °F 6% 29.62 in 10.0 mi South 17.3 mph - N/A   Clear
8:53 PM 73.0 °F 9.0 °F 8% 29.65 in 10.0 mi WSW 6.9 mph - N/A   Clear
9:53 PM 66.9 °F 10.9 °F 11% 29.68 in 10.0 mi SSW 8.1 mph - N/A   Clear
10:53 PM 64.0 °F 10.9 °F 13% 29.69 in 10.0 mi South 9.2 mph - N/A   Clear
11:53 PM 63.0 °F 10.9 °F 13% 29.69 in 10.0 mi South 8.1 mph - N/A   Clear